User: anonymous   Login
Location: Caltech
(34.1382°N, 118.1253°W)
Time: 10:50:49
(UTC-07:00)
Language:

OPAL - Orbit

View from above orbital plane
View from above orbital plane
View from above satellite
View from above satellite

Ground track
Ground track

The orbit data is extracted from the following two-line orbital elements,

1 26063U 00004C   16176.38561310 -.00000000  00000-0  20001-4 0  9997
2 26063 100.1894 108.1292 0035835 236.8159 122.9583 14.36621512860008
Epoch (UTC): 24 June 2016 09:15:16
Eccentricity: 0.0035835
inclination: 100.1894°
perigee height: 744 km
apogee height: 795 km
right ascension of ascending node: 108.1292°
argument of perigee: 236.8159°
revolutions per day: 14.36621512
mean anomaly at epoch: 122.9583°
orbit number at epoch: 86000

The dashed part of the orbit path shows where the satellite is in the earth's shadow,  

DLR